Location: Pilipovskiye Korichintsy
(49.1833°N, 27.4667°E)
Time: 00:09:59
(UTC+00:00)

Lacrosse 5 - Pass Details

Date: 02 November 2020
Orbit: 714 x 725 km, 57.0° (Epoch: 30 November)

Event Time Altitude Azimuth Distance (km) Brightness Sun altitude
Rises 18:08:39 0° 303° (WNW) 3,121 6.1 -33.2°
Reaches altitude 10° 18:11:06 10° 298° (WNW) 2,199 5.2 -33.6°
Enters shadow 18:14:03 32° 277° (W) 1,216 3.4 -34.0°
